Content
SEND FEEDBACK

Daily
Averages
Monthly
Summary
United States of America

ALLEGAN, MICHIGAN


Home > North America > United States > Michigan
Elevation: 773 feet     Latitude: 42 34N     Longitude: 085 46W

WEATHER
 
SELECT A DAY
Number of Records: 222,043;   Date Range: 7/1/96 - 12/16/14
 
SHARE

PRINT THIS DATA

[ ← Previous Day ]
WEATHER ALMANAC - JANUARY 31, 2013
[ Next Day → ]
[ °C ]   °F
Weather ElementAverageHighLow
Temperature20.8 °F27 °F (12:53 am)17.6 °F (5:40 pm)
Dewpoint12.5 °F19.4 °F (3:31 am)8.6 °F (4:26 pm)
Humidity70.4 %81 % (10:53 pm)59 % (4:18 am)
Barometer29.74 in29.97 in (11:53 pm)29.44 in (12:35 am)
Wind Speed15.3 mph23 mph (9:22 am)
Wind Gust34.5 mph (1:53 am)
Weather ElementAverage
Visibility2.1 mi
Wind DirectionWNW (281.8 °)

Weather ElementTotal
Precipitation0.09 in
Heating Degree Days42.7 (Base 65)
Averaged from 131 records on January 31, 2013
WEATHER CONDITIONS BREAKOUT
WIND DIRECTION BREAKOUT
WEATHER BY HOUR - JANUARY 31, 2013
[ °C ]   °F
Local TimeTemperatureDewpointHumidityBarometerVisibilityWind DirectionWind SpeedGust SpeedPrecipitationEventsConditions
12:35 AM26.6 °F17.6 °F69 %29.44 in4.0 miWNW (290°)18.4 mph27.6 mph0.00 inSnowLight Snow
12:53 AM27.0 °F18.0 °F69 %29.47 in5.0 miWNW (290°)18.4 mph26.5 mph0.00 inSnowLight Snow
1:53 AM26.1 °F15.1 °F63 %29.50 in10.0 miWNW (290°)17.3 mph34.5 mph0.00 inOvercast
2:15 AM24.8 °F14.0 °F64 %29.50 in10.0 miWNW (300°)18.4 mph28.8 mphOvercast
2:48 AM24.8 °F17.6 °F74 %29.51 in1.8 miNW (310°)20.7 mph28.8 mph0.00 inSnowLight Snow
2:49 AM25.0 °F18.0 °F75 %29.53 in1.8 miNW (310°)18.4 mph28.8 mph0.00 inSnowLight Snow
2:53 AM24.8 °F17.6 °F74 %29.51 in3.0 miWNW (300°)16.1 mph28.8 mph0.00 inSnowLight Snow
3:12 AM24.8 °F15.8 °F69 %29.53 in1.5 miWest (280°)16.1 mph26.5 mph0.00 inSnowLight Snow
3:15 AM24.8 °F17.6 °F74 %29.53 in0.8 miWest (280°)20.7 mph29.9 mph0.00 inSnowLight Snow
3:17 AM24.8 °F17.6 °F74 %29.53 in0.5 miWNW (290°)18.4 mph31.1 mph0.00 inSnowSnow
3:31 AM24.8 °F19.4 °F80 %29.53 in1.0 miWNW (290°)17.3 mph26.5 mph0.00 inSnowLight Snow
3:36 AM24.8 °F17.6 °F74 %29.53 in2.0 miWest (280°)17.3 mph26.5 mph0.00 inSnowLight Snow
3:40 AM24.8 °F17.6 °F74 %29.53 in1.8 miWest (280°)16.1 mph26.5 mph0.00 inSnowLight Snow
3:50 AM24.8 °F15.8 °F69 %29.54 in3.0 miWNW (290°)16.1 mph31.1 mph0.01 inSnowLight Snow
3:53 AM24.1 °F16.0 °F71 %29.56 in4.0 miWNW (290°)15.0 mph27.6 mph0.01 inSnowLight Snow
4:03 AM24.8 °F15.8 °F69 %29.54 in1.8 miWest (280°)21.9 mph33.4 mph0.00 inSnowLight Snow
4:10 AM24.8 °F14.0 °F64 %29.54 in2.0 miWNW (290°)12.7 mph34.5 mph0.00 inSnowLight Snow
4:18 AM24.8 °F12.2 °F59 %29.54 in6.0 miWNW (290°)19.6 mph26.5 mph0.00 inSnowLight Snow
4:28 AM24.8 °F14.0 °F64 %29.55 in4.0 miWNW (290°)13.8 mph27.6 mph0.00 inSnowLight Snow
4:53 AM24.1 °F14.0 °F65 %29.58 in4.0 miWNW (300°)13.8 mph27.6 mph0.00 inSnowLight Snow
5:18 AM24.8 °F15.8 °F69 %29.57 in2.0 miWest (280°)17.3 mph31.1 mph0.00 inSnowLight Snow
5:21 AM24.8 °F15.8 °F69 %29.57 in1.8 miWest (280°)19.6 mph31.1 mph0.00 inSnowLight Snow
5:33 AM24.8 °F14.0 °F64 %29.57 in3.0 miWNW (290°)15.0 mph28.8 mph0.00 inSnowLight Snow
5:45 AM23.0 °F15.8 °F74 %29.58 in1.8 miWest (280°)17.3 mph28.8 mph0.00 inSnowLight Snow
5:53 AM23.0 °F15.1 °F72 %29.60 in2.0 miWNW (290°)17.3 mph27.6 mph0.00 inSnowLight Snow
5:58 AM23.0 °F14.0 °F68 %29.58 in4.0 miWNW (290°)13.8 mph27.6 mph0.00 inSnowLight Snow
6:06 AM23.0 °F12.2 °F63 %29.58 in5.0 miWest (270°)18.4 mph28.8 mph0.00 inSnowLight Snow
6:11 AM23.0 °F14.0 °F68 %29.58 in2.5 miWest (280°)19.6 mph27.6 mph0.00 inSnowLight Snow
6:23 AM23.0 °F12.2 °F63 %29.59 in6.0 miWest (280°)17.3 mph25.3 mph0.00 inSnowLight Snow
6:32 AM21.2 °F14.0 °F74 %29.60 in2.0 miWest (280°)17.3 mph25.3 mph0.00 inSnowLight Snow
6:36 AM21.2 °F14.0 °F74 %29.60 in1.5 miWest (280°)21.9 mph32.2 mph0.00 inSnowLight Snow
6:43 AM23.0 °F14.0 °F68 %29.60 in2.0 miWest (280°)15.0 mph32.2 mph0.00 inSnowLight Snow
6:53 AM23.0 °F12.9 °F65 %29.63 in5.0 miWest (270°)18.4 mph26.5 mph0.00 inSnowLight Snow
7:03 AM23.0 °F12.2 °F63 %29.61 in5.0 miWest (270°)18.4 mph25.3 mph0.00 inSnowLight Snow
7:06 AM21.2 °F12.2 °F68 %29.61 in2.5 miWNW (290°)17.3 mph27.6 mph0.00 inSnowLight Snow
7:14 AM23.0 °F12.2 °F63 %29.61 in3.0 miWest (280°)15.0 mph25.3 mph0.00 inSnowLight Snow
7:19 AM21.2 °F14.0 °F74 %29.62 in2.5 miWest (270°)15.0 mph24.2 mph0.00 inSnowLight Snow
7:53 AM21.0 °F14.0 °F74 %29.66 in1.2 miWest (270°)16.1 mph28.8 mph0.00 inSnowLight Snow
8:02 AM21.2 °F12.2 °F68 %29.63 in2.5 miWest (260°)16.1 mph26.5 mph0.00 inSnowLight Snow
8:09 AM21.2 °F12.2 °F68 %29.64 in3.0 miWest (280°)18.4 mph29.9 mph0.00 inSnowLight Snow
8:16 AM21.2 °F12.2 °F68 %29.64 in2.0 miWest (270°)16.1 mph26.5 mph0.00 inSnowLight Snow
8:23 AM21.2 °F12.2 °F68 %29.64 in1.2 miWest (270°)18.4 mph27.6 mph0.00 inSnowLight Snow
8:29 AM21.2 °F12.2 °F68 %29.65 in2.0 miWest (280°)16.1 mph26.5 mph0.00 inSnowLight Snow
8:37 AM21.2 °F12.2 °F68 %29.65 in1.2 miWest (270°)17.3 mph27.6 mph0.00 inSnowLight Snow
8:53 AM21.0 °F12.0 °F68 %29.70 in0.8 miWest (270°)19.6 mph29.9 mph0.00 inSnowLight Snow
9:08 AM19.4 °F12.2 °F74 %29.67 in0.5 miWest (270°)17.3 mph32.2 mph0.00 inSnowSnow
9:14 AM19.4 °F10.4 °F68 %29.67 in1.0 miWest (270°)20.7 mph31.1 mph0.00 inSnowLight Snow
9:22 AM19.4 °F12.2 °F74 %29.68 in0.5 miWest (270°)23.0 mph32.2 mph0.00 inSnowSnow
9:38 AM19.4 °F12.2 °F74 %29.69 in0.8 miWest (270°)17.3 mph31.1 mph0.00 inSnowLight Snow
9:53 AM21.0 °F12.0 °F68 %29.73 in1.0 miWest (280°)13.8 mph25.3 mph0.00 inSnowLight Snow
10:07 AM19.4 °F12.2 °F74 %29.70 in0.5 miWest (280°)17.3 mph25.3 mph0.00 inSnowSnow
10:20 AM21.2 °F12.2 °F68 %29.70 in0.8 miWest (280°)18.4 mph28.8 mph0.00 inSnowLight Snow
10:43 AM19.4 °F12.2 °F74 %29.71 in1.2 miWest (270°)13.8 mph27.6 mph0.00 inSnowLight Snow
10:53 AM21.0 °F12.0 °F68 %29.75 in1.0 miWest (280°)19.6 mph25.3 mph0.00 inSnowLight Snow
11:02 AM21.2 °F12.2 °F68 %29.72 in0.5 miWest (270°)21.9 mph32.2 mph0.00 inSnowSnow
11:13 AM21.2 °F12.2 °F68 %29.73 in1.0 miWest (270°)18.4 mph24.2 mph0.00 inSnowLight Snow
11:30 AM21.2 °F10.4 °F63 %29.73 in2.0 miWest (270°)12.7 mph27.6 mph0.00 inSnowLight Snow
11:40 AM21.2 °F10.4 °F63 %29.73 in2.5 miWest (270°)18.4 mph27.6 mph0.00 inSnowLight Snow
11:49 AM21.2 °F10.4 °F63 %29.73 in4.0 miWest (270°)15.0 mph24.2 mph0.00 inSnowLight Snow
11:53 AM21.0 °F10.9 °F65 %29.77 in3.0 miWest (260°)15.0 mph24.2 mph0.00 inSnowLight Snow
12:00 PM21.2 °F12.2 °F68 %29.74 in1.8 miWest (260°)18.4 mph26.5 mph0.00 inSnowLight Snow
12:08 PM19.4 °F12.2 °F74 %29.74 in1.0 miWest (270°)16.1 mph26.5 mph0.00 inSnowLight Snow
12:27 PM21.2 °F10.4 °F63 %29.74 in2.0 miWest (270°)15.0 mph24.2 mph0.00 inSnowLight Snow
12:35 PM21.2 °F12.2 °F68 %29.74 in6.0 miWest (280°)13.8 mph0.00 inSnowLight Snow
12:53 PM21.0 °F10.9 °F65 %29.78 in3.0 miWest (280°)17.3 mph23.0 mph0.00 inSnowLight Snow
1:01 PM21.2 °F10.4 °F63 %29.75 in2.5 miWest (280°)15.0 mph25.3 mph0.00 inSnowLight Snow
1:09 PM21.2 °F10.4 °F63 %29.75 in4.0 miWest (270°)17.3 mph24.2 mph0.00 inSnowLight Snow
1:39 PM21.2 °F10.4 °F63 %29.75 in2.5 miWest (280°)12.7 mph26.5 mph0.00 inSnowLight Snow
1:46 PM21.2 °F10.4 °F63 %29.75 in1.8 miWest (280°)13.8 mph19.6 mph0.00 inSnowLight Snow
1:49 PM21.2 °F10.4 °F63 %29.75 in4.0 miWest (270°)15.0 mph19.6 mph0.00 inSnowLight Snow
1:53 PM21.0 °F10.9 °F65 %29.79 in7.0 miWest (270°)16.1 mph25.3 mph0.00 inOvercast
1:58 PM19.4 °F12.2 °F74 %29.76 in1.5 miWest (280°)12.7 mph25.3 mph0.00 inSnowLight Snow
2:04 PM19.4 °F12.2 °F74 %29.76 in0.8 miWest (270°)12.7 mph23.0 mph0.00 inSnowLight Snow
2:16 PM19.4 °F12.2 °F74 %29.76 in0.2 miWest (270°)17.3 mph25.3 mph0.00 inSnowHeavy Snow
2:24 PM19.4 °F12.2 °F74 %29.77 in0.8 miWest (260°)16.1 mph23.0 mph0.00 inSnowLight Snow
2:36 PM19.4 °F12.2 °F74 %29.77 in0.5 miWest (280°)10.4 mph19.6 mph0.00 inSnowSnow
2:53 PM19.9 °F12.9 °F74 %29.81 in0.5 miWest (280°)11.5 mph20.7 mph0.01 inSnowSnow
3:22 PM19.4 °F12.2 °F74 %29.79 in0.5 miWest (270°)13.8 mph28.8 mph0.00 inSnowSnow
3:29 PM19.4 °F12.2 °F74 %29.78 in0.8 miWest (270°)15.0 mph25.3 mph0.00 inSnowLight Snow
3:42 PM19.4 °F12.2 °F74 %29.79 in1.0 miWest (270°)12.7 mph0.00 inSnowLight Snow
3:53 PM19.9 °F12.9 °F74 %29.83 in1.2 miWest (260°)13.8 mph23.0 mph0.00 inSnowLight Snow
4:00 PM19.4 °F12.2 °F74 %29.79 in2.0 miWest (270°)11.5 mph23.0 mph0.00 inSnowLight Snow
4:13 PM19.4 °F10.4 °F68 %29.80 in1.8 miWest (280°)15.0 mph26.5 mph0.00 inSnowLight Snow
4:26 PM19.4 °F8.6 °F63 %29.80 in3.0 miWest (270°)13.8 mph24.2 mph0.00 inSnowLight Snow
4:53 PM19.9 °F10.9 °F68 %29.84 in3.0 miWest (270°)13.8 mph23.0 mph0.00 inSnowLight Snow
4:58 PM19.4 °F10.4 °F68 %29.81 in1.5 miWNW (290°)18.4 mph23.0 mph0.00 inSnowLight Snow
5:03 PM19.4 °F10.4 °F68 %29.81 in0.8 miWest (270°)13.8 mph23.0 mph0.00 inSnowLight Snow
5:13 PM19.4 °F10.4 °F68 %29.81 in1.2 miWest (280°)12.7 mph0.00 inSnowLight Snow
5:29 PM19.4 °F10.4 °F68 %29.82 in0.5 miWest (270°)15.0 mph23.0 mph0.00 inSnowSnow
5:40 PM17.6 °F12.2 °F79 %29.82 in0.2 miWest (280°)16.1 mph0.00 inSnowHeavy Snow
5:51 PM19.4 °F10.4 °F68 %29.82 in1.0 miWest (270°)13.8 mph0.00 inSnowLight Snow
5:53 PM19.0 °F10.9 °F71 %29.86 in1.5 miWest (280°)11.5 mph0.00 inSnowLight Snow
6:02 PM19.4 °F10.4 °F68 %29.83 in2.5 miWest (280°)10.4 mph0.00 inSnowLight Snow
6:19 PM19.4 °F10.4 °F68 %29.84 in1.2 miWest (280°)12.7 mph0.00 inSnowLight Snow
6:22 PM19.4 °F10.4 °F68 %29.84 in2.0 miWest (270°)10.4 mph0.00 inSnowLight Snow
6:31 PM19.4 °F10.4 °F68 %29.84 in6.0 miWest (280°)11.5 mph0.00 inSnowLight Snow
6:45 PM19.4 °F10.4 °F68 %29.85 in1.8 miWest (280°)15.0 mph20.7 mph0.00 inSnowLight Snow
6:53 PM19.0 °F12.0 °F74 %29.88 in1.0 miWest (280°)13.8 mph20.7 mph0.00 inSnowLight Snow
7:00 PM19.4 °F10.4 °F68 %29.85 in2.0 miWest (280°)15.0 mph23.0 mph0.00 inSnowLight Snow
7:09 PM19.4 °F12.2 °F74 %29.86 in1.8 miWest (280°)16.1 mph21.9 mph0.00 inSnowLight Snow
7:20 PM19.4 °F12.2 °F74 %29.86 in1.0 miWest (280°)13.8 mph24.2 mph0.00 inSnowLight Snow
7:27 PM19.4 °F10.4 °F68 %29.86 in2.0 miWNW (290°)12.7 mph23.0 mph0.00 inSnowLight Snow
7:45 PM19.4 °F12.2 °F74 %29.87 in1.2 miWest (280°)13.8 mph20.7 mph0.00 inSnowLight Snow
7:53 PM19.0 °F12.0 °F74 %29.91 in1.5 miWNW (290°)13.8 mph23.0 mph0.00 inSnowLight Snow
8:00 PM19.4 °F12.2 °F74 %29.87 in0.8 miWest (280°)11.5 mph23.0 mph0.00 inSnowLight Snow
8:08 PM17.6 °F12.2 °F79 %29.87 in0.5 miWest (280°)13.8 mph24.2 mph0.01 inSnowSnow
8:17 PM17.6 °F12.2 °F79 %29.88 in0.8 miWest (280°)12.7 mph24.2 mph0.01 inSnowLight Snow
8:37 PM19.4 °F12.2 °F74 %29.88 in1.0 miWNW (290°)11.5 mph24.2 mph0.01 inSnowLight Snow
8:40 PM19.4 °F10.4 °F68 %29.88 in2.5 miWest (280°)12.7 mph19.6 mph0.01 inSnowLight Snow
8:53 PM19.0 °F10.0 °F68 %29.92 in2.5 miWNW (300°)10.4 mph23.0 mph0.01 inSnowLight Snow
8:58 PM19.4 °F10.4 °F68 %29.89 in4.0 miWNW (300°)12.7 mph20.7 mph0.00 inSnowLight Snow
9:04 PM17.6 °F10.4 °F73 %29.89 in2.0 miWNW (300°)13.8 mph20.7 mph0.00 inSnowLight Snow
9:10 PM17.6 °F10.4 °F73 %29.90 in1.2 miWNW (300°)13.8 mph20.7 mph0.00 inSnowLight Snow
9:16 PM19.4 °F10.4 °F68 %29.90 in2.0 miWNW (290°)10.4 mph20.7 mph0.00 inSnowLight Snow
9:24 PM17.6 °F10.4 °F73 %29.90 in1.2 miWNW (300°)16.1 mph23.0 mph0.00 inSnowLight Snow
9:30 PM17.6 °F12.2 °F79 %29.90 in0.5 miWNW (290°)11.5 mph23.0 mph0.00 inSnowSnow
9:41 PM17.6 °F12.2 °F79 %29.90 in1.0 miWest (280°)12.7 mph19.6 mph0.00 inSnowLight Snow
9:46 PM19.4 °F12.2 °F74 %29.91 in2.0 miWNW (300°)10.4 mph19.6 mph0.00 inSnowLight Snow
9:51 PM17.6 °F10.4 °F73 %29.91 in1.2 miNW (310°)11.5 mph19.6 mph0.00 inSnowLight Snow
9:53 PM18.0 °F12.0 °F78 %29.94 in1.0 miWNW (300°)17.3 mph23.0 mph0.00 inSnowLight Snow
9:57 PM17.6 °F12.2 °F79 %29.91 in0.8 miWNW (300°)13.8 mph23.0 mph0.00 inSnowLight Snow
10:04 PM17.6 °F12.2 °F79 %29.91 in0.8 miWNW (300°)16.1 mph24.2 mph0.00 inSnowLight Snow
10:06 PM17.6 °F12.2 °F79 %29.91 in0.5 miWNW (300°)15.0 mph24.2 mph0.00 inSnowSnow
10:53 PM18.0 °F12.9 °F81 %29.96 in0.5 miWNW (290°)10.4 mph20.7 mph0.01 inSnowSnow
11:09 PM17.6 °F12.2 °F79 %29.93 in0.8 miNW (310°)11.5 mph19.6 mph0.00 inSnowLight Snow
11:17 PM17.6 °F12.2 °F79 %29.93 in1.2 miWNW (290°)10.4 mph19.6 mph0.00 inSnowLight Snow
11:21 PM19.4 °F12.2 °F74 %29.93 in2.0 miWNW (290°)9.2 mph19.6 mph0.00 inSnowLight Snow
11:35 PM17.6 °F12.2 °F79 %29.93 in1.8 miNW (310°)11.5 mph0.00 inSnowLight Snow
11:46 PM17.6 °F10.4 °F73 %29.94 in3.0 miNW (310°)16.1 mph24.2 mph0.00 inSnowLight Snow
11:53 PM19.0 °F10.0 °F68 %29.97 in4.0 miWNW (300°)15.0 mph24.2 mph0.00 inSnowLight Snow
11:57 PM17.6 °F10.4 °F73 %29.94 in1.8 miWNW (290°)12.7 mph24.2 mph0.00 inSnowLight Snow
Hourly data recorded from KBIV, located miles away from Allegan, Michigan







STORIES FROM OUR PARTNERS